Time,TemperatureF,DewpointF,PressureIn,WindDirection,WindDirectionDegrees,WindSpeedMPH,WindSpeedGustMPH,Humidity,HourlyPrecipIn,Conditions,Clouds,dailyrainin,SoftwareType,DateUTC
2013-02-05 00:00:00,39.6,36.3,29.81,ESE,112,5.0,5.0,88,0.00,RA,,0.00,WeatherDisplay:10.37,2013-02-04 23:00:00,
2013-02-05 00:10:00,39.6,36.0,29.81,West,279,0.0,0.0,87,0.00,BKN,,0.00,WeatherDisplay:10.37,2013-02-04 23:10:00,
2013-02-05 00:20:00,39.7,36.2,29.81,WNW,303,0.0,0.0,87,0.00,BKN,,0.00,WeatherDisplay:10.37,2013-02-04 23:20:00,
2013-02-05 00:30:00,39.7,36.2,29.81,NW,307,0.0,1.0,87,0.00,OVC,,0.00,WeatherDisplay:10.37,2013-02-04 23:30:00,
2013-02-05 00:41:00,39.7,35.9,29.81,WSW,245,0.0,1.0,86,0.00,OVC,,0.00,WeatherDisplay:10.37,2013-02-04 23:41:00,
2013-02-05 00:50:00,39.7,35.9,29.81,ESE,112,1.0,6.0,86,0.00,CLR,,0.00,WeatherDisplay:10.37,2013-02-04 23:50:00,
2013-02-05 01:00:00,39.7,35.9,29.82,West,281,0.0,0.0,86,0.00,CLR,,0.00,WeatherDisplay:10.37,2013-02-05 00:00:00,
2013-02-05 01:10:00,39.6,35.4,29.82,WNW,298,0.0,3.0,85,0.00,CLR,,0.00,WeatherDisplay:10.37,2013-02-05 00:10:00,
2013-02-05 01:20:00,39.4,34.9,29.81,WNW,294,0.0,0.0,84,0.00,CLR,,0.00,WeatherDisplay:10.37,2013-02-05 00:20:00,
2013-02-05 01:30:00,38.8,34.1,29.81,WNW,292,0.0,0.0,83,0.00,BKN,,0.00,WeatherDisplay:10.37,2013-02-05 00:30:00,
2013-02-05 01:40:00,38.3,33.6,29.81,WNW,303,1.0,1.0,83,0.00,BKN,,0.00,WeatherDisplay:10.37,2013-02-05 00:40:00,
2013-02-05 01:50:00,37.9,33.2,29.80,SE,135,0.0,1.0,83,0.00,BKN,,0.00,WeatherDisplay:10.37,2013-02-05 00:50:00,
2013-02-05 02:00:00,37.8,33.4,29.81,SE,135,0.0,0.0,84,0.00,BKN,,0.00,WeatherDisplay:10.37,2013-02-05 01:00:00,
2013-02-05 02:21:00,37.4,33.3,29.80,ESE,112,0.0,2.0,85,0.00,BKN,,0.00,WeatherDisplay:10.37,2013-02-05 01:21:00,
2013-02-05 02:30:00,37.4,33.3,29.80,East,87,1.0,1.0,85,0.00,BKN,,0.00,WeatherDisplay:10.37,2013-02-05 01:30:00,
2013-02-05 02:40:00,37.4,33.3,29.79,SE,135,3.0,3.0,85,0.00,BKN,,0.00,WeatherDisplay:10.37,2013-02-05 01:40:00,
2013-02-05 02:50:00,37.8,33.9,29.79,SE,135,1.0,2.0,86,0.00,FEW,,0.00,WeatherDisplay:10.37,2013-02-05 01:50:00,
2013-02-05 03:00:00,37.9,34.1,29.79,ESE,112,5.0,5.0,86,0.00,BKN,,0.00,WeatherDisplay:10.37,2013-02-05 02:00:00,
2013-02-05 03:10:00,38.1,34.3,29.78,WNW,303,0.0,0.0,86,0.00,FEW,,0.00,WeatherDisplay:10.37,2013-02-05 02:10:00,
2013-02-05 03:20:00,38.3,34.5,29.78,North,349,1.0,1.0,86,0.00,CLR,,0.00,WeatherDisplay:10.37,2013-02-05 02:20:00,
2013-02-05 03:30:00,38.5,34.7,29.77,WSW,245,0.0,1.0,86,0.00,CLR,,0.00,WeatherDisplay:10.37,2013-02-05 02:30:00,
2013-02-05 03:41:00,38.8,35.0,29.77,WNW,292,0.0,1.0,86,0.00,CLR,,0.00,WeatherDisplay:10.37,2013-02-05 02:41:00,
2013-02-05 03:50:00,38.8,35.0,29.76,SE,136,5.0,8.0,86,0.00,CLR,,0.00,WeatherDisplay:10.37,2013-02-05 02:50:00,
2013-02-05 04:00:00,38.8,35.0,29.76,South,182,0.0,1.0,86,0.00,CLR,,0.00,WeatherDisplay:10.37,2013-02-05 03:00:00,
2013-02-05 04:10:00,38.8,35.0,29.75,ESE,112,0.0,5.0,86,0.00,CLR,,0.00,WeatherDisplay:10.37,2013-02-05 03:10:00,
2013-02-05 04:20:00,38.8,35.0,29.74,SE,135,0.0,5.0,86,0.00,CLR,,0.00,WeatherDisplay:10.37,2013-02-05 03:20:00,
2013-02-05 04:30:00,38.8,34.7,29.75,SE,135,3.0,3.0,85,0.00,SCT,,0.00,WeatherDisplay:10.37,2013-02-05 03:30:00,
2013-02-05 04:40:00,39.0,34.9,29.75,SE,130,3.0,4.0,85,0.00,SCT,,0.00,WeatherDisplay:10.37,2013-02-05 03:40:00,
2013-02-05 04:50:00,39.0,34.6,29.74,North,351,3.0,4.0,84,0.00,SCT,,0.00,WeatherDisplay:10.37,2013-02-05 03:50:00,
2013-02-05 05:00:00,39.0,34.6,29.74,ESE,112,5.0,5.0,84,0.00,CLR,,0.00,WeatherDisplay:10.37,2013-02-05 04:00:00,
2013-02-05 05:10:00,39.0,34.3,29.73,ESE,120,5.0,5.0,83,0.00,CLR,,0.00,WeatherDisplay:10.37,2013-02-05 04:10:00,
2013-02-05 05:20:00,39.2,34.5,29.73,ESE,112,2.0,4.0,83,0.00,CLR,,0.00,WeatherDisplay:10.37,2013-02-05 04:20:00,
2013-02-05 05:30:00,39.0,34.0,29.73,SE,125,2.0,3.0,82,0.00,CLR,,0.00,WeatherDisplay:10.37,2013-02-05 04:30:00,
2013-02-05 05:41:00,39.4,34.3,29.73,SE,124,3.0,4.0,82,0.00,CLR,,0.00,WeatherDisplay:10.37,2013-02-05 04:41:00,
2013-02-05 05:50:00,39.4,34.0,29.72,SE,132,3.0,4.0,81,0.00,CLR,,0.00,WeatherDisplay:10.37,2013-02-05 04:50:00,
2013-02-05 06:00:00,39.4,34.0,29.73,SSE,167,0.0,2.0,81,0.00,CLR,,0.00,WeatherDisplay:10.37,2013-02-05 05:00:00,
2013-02-05 06:10:00,39.4,33.7,29.72,SE,135,6.0,6.0,80,0.00,CLR,,0.00,WeatherDisplay:10.37,2013-02-05 05:10:00,
2013-02-05 06:20:00,39.4,33.7,29.71,South,176,0.0,2.0,80,0.00,CLR,,0.00,WeatherDisplay:10.37,2013-02-05 05:20:00,
2013-02-05 06:30:00,39.4,33.7,29.70,SE,135,3.0,3.0,80,0.00,SCT,,0.00,WeatherDisplay:10.37,2013-02-05 05:30:00,
2013-02-05 06:40:00,39.2,33.5,29.70,NW,315,2.0,2.0,80,0.00,SCT,,0.00,WeatherDisplay:10.37,2013-02-05 05:40:00,
2013-02-05 06:50:00,39.0,33.4,29.70,NW,306,0.0,0.0,80,0.00,FEW,,0.00,WeatherDisplay:10.37,2013-02-05 05:50:00,
2013-02-05 07:10:00,39.0,33.4,29.69,NW,315,0.0,4.0,80,0.00,FEW,,0.00,WeatherDisplay:10.37,2013-02-05 06:10:00,
2013-02-05 07:20:00,39.0,33.4,29.69,WNW,298,0.0,2.0,80,0.00,OVC,,0.00,WeatherDisplay:10.37,2013-02-05 06:20:00,
2013-02-05 07:30:00,39.0,33.4,29.69,ESE,112,1.0,1.0,80,0.00,OVC,,0.00,WeatherDisplay:10.37,2013-02-05 06:30:00,
2013-02-05 07:40:00,39.0,33.4,29.68,SW,234,1.0,1.0,80,0.00,OVC,,0.00,WeatherDisplay:10.37,2013-02-05 06:40:00,
2013-02-05 07:50:00,39.0,33.4,29.67,SE,129,8.0,8.0,80,0.00,OVC,,0.00,WeatherDisplay:10.37,2013-02-05 06:50:00,
2013-02-05 08:00:00,39.2,33.5,29.67,SW,216,1.0,1.0,80,0.00,OVC,,0.00,WeatherDisplay:10.37,2013-02-05 07:00:00,
2013-02-05 08:10:00,39.2,33.9,29.67,WSW,237,3.0,3.0,81,0.00,OVC,,0.00,WeatherDisplay:10.37,2013-02-05 07:10:00,
2013-02-05 08:20:00,39.2,33.9,29.67,SSE,152,0.0,3.0,81,0.00,BKN,,0.00,WeatherDisplay:10.37,2013-02-05 07:20:00,
2013-02-05 08:30:00,39.4,34.0,29.67,WSW,257,0.0,1.0,81,0.00,BKN,,0.00,WeatherDisplay:10.37,2013-02-05 07:30:00,
2013-02-05 08:40:00,39.4,34.0,29.67,NW,315,2.0,2.0,81,0.00,BKN,,0.00,WeatherDisplay:10.37,2013-02-05 07:40:00,
2013-02-05 08:50:00,39.4,34.0,29.67,SE,135,3.0,4.0,81,0.00,BKN,,0.00,WeatherDisplay:10.37,2013-02-05 07:50:00,
2013-02-05 09:00:00,39.4,34.0,29.66,ESE,122,1.0,1.0,81,0.00,BKN,,0.00,WeatherDisplay:10.37,2013-02-05 08:00:00,
2013-02-05 09:10:00,39.6,34.2,29.66,NW,320,2.0,2.0,81,0.00,BKN,,0.00,WeatherDisplay:10.37,2013-02-05 08:10:00,
2013-02-05 09:20:00,39.7,34.4,29.66,SE,135,2.0,2.0,81,0.00,BKN,,0.00,WeatherDisplay:10.37,2013-02-05 08:20:00,
2013-02-05 09:30:00,39.7,34.1,29.66,ESE,120,1.0,1.0,80,0.00,OVC,,0.00,WeatherDisplay:10.37,2013-02-05 08:30:00,
2013-02-05 09:40:00,39.9,34.6,29.65,NW,305,5.0,8.0,81,0.00,OVC,,0.00,WeatherDisplay:10.37,2013-02-05 08:40:00,
2013-02-05 09:50:00,39.9,34.2,29.64,East,88,0.0,1.0,80,0.00,OVC,,0.00,WeatherDisplay:10.37,2013-02-05 08:50:00,
2013-02-05 10:00:00,40.1,34.1,29.65,NE,53,5.0,8.0,79,0.00,BKN,,0.00,WeatherDisplay:10.37,2013-02-05 09:00:00,
2013-02-05 10:10:00,40.6,34.0,29.64,ESE,123,1.0,1.0,77,0.00,BKN,,0.00,WeatherDisplay:10.37,2013-02-05 09:10:00,
2013-02-05 10:20:00,41.0,34.0,29.63,East,99,1.0,1.0,76,0.00,BKN,,0.00,WeatherDisplay:10.37,2013-02-05 09:20:00,
2013-02-05 10:30:00,41.7,34.0,29.63,WNW,299,0.0,1.0,74,0.00,SCT,,0.00,WeatherDisplay:10.37,2013-02-05 09:30:00,
2013-02-05 10:40:00,42.4,34.4,29.62,SE,130,1.0,2.0,73,0.00,SCT,,0.00,WeatherDisplay:10.37,2013-02-05 09:40:00,
2013-02-05 11:00:00,43.0,34.2,29.62,SE,130,5.0,5.0,71,0.00,SCT,,0.00,WeatherDisplay:10.37,2013-02-05 10:00:00,
2013-02-05 11:11:00,43.2,34.4,29.62,ESE,116,1.0,12.0,71,0.00,SCT,,0.00,WeatherDisplay:10.37,2013-02-05 10:11:00,
2013-02-05 11:20:00,42.6,33.9,29.62,NNE,24,1.0,1.0,71,0.00,BKN,,0.00,WeatherDisplay:10.37,2013-02-05 10:20:00,
2013-02-05 11:31:00,42.6,33.5,29.62,SSE,148,2.0,2.0,70,0.00,BKN,,0.00,WeatherDisplay:10.37,2013-02-05 10:31:00,
2013-02-05 11:40:00,43.0,33.9,29.61,WNW,292,1.0,2.0,70,0.00,BKN,,0.00,WeatherDisplay:10.37,2013-02-05 10:40:00,
2013-02-05 11:50:00,44.1,34.2,29.60,NW,315,0.0,0.0,68,0.00,SCT,,0.00,WeatherDisplay:10.37,2013-02-05 10:50:00,
2013-02-05 12:00:00,43.9,33.6,29.59,SE,124,3.0,5.0,67,0.00,SCT,,0.00,WeatherDisplay:10.37,2013-02-05 11:00:00,
2013-02-05 12:10:00,43.2,33.3,29.60,SE,127,0.0,5.0,68,0.00,SCT,,0.00,WeatherDisplay:10.37,2013-02-05 11:10:00,
2013-02-05 12:21:00,42.6,33.2,29.60,SE,135,2.0,7.0,69,0.00,CLR,,0.00,WeatherDisplay:10.37,2013-02-05 11:21:00,
2013-02-05 12:30:00,42.4,33.0,29.59,SSE,161,1.0,1.0,69,0.00,CLR,,0.00,WeatherDisplay:10.37,2013-02-05 11:30:00,
2013-02-05 12:40:00,42.6,33.2,29.59,ESE,104,1.0,7.0,69,0.00,CLR,,0.00,WeatherDisplay:10.37,2013-02-05 11:40:00,
2013-02-05 12:50:00,43.3,33.8,29.57,NW,305,2.0,3.0,69,0.00,CLR,,0.00,WeatherDisplay:10.37,2013-02-05 11:50:00,
2013-02-05 13:00:00,45.5,34.0,29.57,SE,126,1.0,2.0,64,0.00,SCT,,0.00,WeatherDisplay:10.37,2013-02-05 12:00:00,
2013-02-05 13:10:00,46.9,33.8,29.57,WSW,252,2.0,8.0,60,0.00,SCT,,0.00,WeatherDisplay:10.37,2013-02-05 12:10:00,
2013-02-05 13:20:00,48.4,33.8,29.56,ESE,112,6.0,6.0,57,0.00,SCT,,0.00,WeatherDisplay:10.37,2013-02-05 12:20:00,
2013-02-05 13:30:00,48.6,34.0,29.56,NNE,29,2.0,2.0,57,0.00,SCT,,0.00,WeatherDisplay:10.37,2013-02-05 12:30:00,
2013-02-05 13:41:00,47.3,33.7,29.56,SE,135,6.0,10.0,59,0.00,SCT,,0.00,WeatherDisplay:10.37,2013-02-05 12:41:00,
2013-02-05 13:51:00,46.9,33.3,29.55,SE,126,1.0,1.0,59,0.00,SCT,,0.00,WeatherDisplay:10.37,2013-02-05 12:51:00,
2013-02-05 14:01:00,45.1,32.9,29.55,WNW,292,1.0,2.0,62,0.00,SCT,,0.00,WeatherDisplay:10.37,2013-02-05 13:01:00,
2013-02-05 14:10:00,44.4,32.6,29.54,SE,139,1.0,4.0,63,0.00,SCT,,0.00,WeatherDisplay:10.37,2013-02-05 13:10:00,
2013-02-05 14:21:00,44.4,32.6,29.54,SSE,163,2.0,4.0,63,0.00,BKN,,0.00,WeatherDisplay:10.37,2013-02-05 13:21:00,
2013-02-05 14:30:00,44.6,32.4,29.53,East,82,5.0,9.0,62,0.00,BKN,,0.00,WeatherDisplay:10.37,2013-02-05 13:30:00,
2013-02-05 14:40:00,45.1,32.5,29.52,SSE,147,1.0,1.0,61,0.00,BKN,,0.00,WeatherDisplay:10.37,2013-02-05 13:40:00,
2013-02-05 14:50:00,45.1,32.1,29.52,NNE,26,2.0,2.0,60,0.00,SCT,,0.00,WeatherDisplay:10.37,2013-02-05 13:50:00,
2013-02-05 15:10:00,45.3,32.2,29.51,ESE,123,2.0,9.0,60,0.00,SCT,,0.00,WeatherDisplay:10.37,2013-02-05 14:10:00,
2013-02-05 15:30:00,44.6,33.2,29.50,ESE,106,9.0,17.0,64,0.00,SCT,,0.00,WeatherDisplay:10.37,2013-02-05 14:30:00,
2013-02-05 15:40:00,43.3,33.5,29.50,West,271,2.0,2.0,68,0.00,SCT,,0.00,WeatherDisplay:10.37,2013-02-05 14:40:00,
2013-02-05 15:50:00,43.3,33.8,29.49,West,280,2.0,2.0,69,0.00,SCT,,0.00,WeatherDisplay:10.37,2013-02-05 14:50:00,
2013-02-05 16:00:00,43.2,33.7,29.49,SE,135,3.0,3.0,69,0.00,SCT,,0.00,WeatherDisplay:10.37,2013-02-05 15:00:00,
2013-02-05 16:11:00,43.3,33.8,29.50,SE,124,0.0,0.0,69,0.00,SCT,,0.00,WeatherDisplay:10.37,2013-02-05 15:11:00,
2013-02-05 16:20:00,43.5,33.3,29.50,WNW,292,0.0,2.0,67,0.00,BKN,,0.00,WeatherDisplay:10.37,2013-02-05 15:20:00,
2013-02-05 16:30:00,43.5,32.5,29.50,NW,307,6.0,6.0,65,0.00,SCT,,0.00,WeatherDisplay:10.37,2013-02-05 15:30:00,
2013-02-05 16:40:00,43.0,32.4,29.50,WNW,292,6.0,9.0,66,0.00,SCT,,0.00,WeatherDisplay:10.37,2013-02-05 15:40:00,
2013-02-05 17:00:00,42.1,32.3,29.50,WNW,297,2.0,14.0,68,0.00,SCT,,0.00,WeatherDisplay:10.37,2013-02-05 16:00:00,
2013-02-05 17:10:00,41.9,32.1,29.50,WNW,292,5.0,5.0,68,0.00,FEW,,0.00,WeatherDisplay:10.37,2013-02-05 16:10:00,
2013-02-05 17:21:00,41.5,32.1,29.50,WNW,291,2.0,2.0,69,0.00,FEW,,0.00,WeatherDisplay:10.37,2013-02-05 16:21:00,
2013-02-05 17:30:00,41.2,31.8,29.51,NNW,344,0.0,2.0,69,0.00,FEW,,0.00,WeatherDisplay:10.37,2013-02-05 16:30:00,
2013-02-05 17:40:00,40.8,31.4,29.53,SSW,209,1.0,1.0,69,0.00,FEW,,0.00,WeatherDisplay:10.37,2013-02-05 16:40:00,
2013-02-05 17:50:00,40.8,31.4,29.53,WNW,292,5.0,5.0,69,0.00,FEW,,0.00,WeatherDisplay:10.37,2013-02-05 16:50:00,
2013-02-05 18:00:00,40.6,31.3,29.53,NW,315,1.0,5.0,69,0.00,FEW,,0.00,WeatherDisplay:10.37,2013-02-05 17:00:00,
2013-02-05 18:10:00,40.3,30.9,29.53,WNW,292,2.0,3.0,69,0.00,FEW,,0.00,WeatherDisplay:10.37,2013-02-05 17:10:00,
2013-02-05 18:20:00,39.9,29.5,29.54,WNW,301,3.0,4.0,66,0.00,FEW,,0.00,WeatherDisplay:10.37,2013-02-05 17:20:00,
2013-02-05 18:30:00,39.7,28.2,29.54,WNW,296,1.0,3.0,63,0.00,BKN,,0.00,WeatherDisplay:10.37,2013-02-05 17:30:00,
2013-02-05 18:40:00,39.4,27.8,29.54,NW,320,0.0,9.0,63,0.00,BKN,,0.00,WeatherDisplay:10.37,2013-02-05 17:40:00,
2013-02-05 18:50:00,39.4,28.2,29.53,NW,308,2.0,2.0,64,0.00,BKN,,0.00,WeatherDisplay:10.37,2013-02-05 17:50:00,
2013-02-05 19:00:00,38.5,28.8,29.54,ESE,112,1.0,1.0,68,0.00,BKN,,0.00,WeatherDisplay:10.37,2013-02-05 18:00:00,
2013-02-05 19:10:00,37.9,29.4,29.54,ESE,105,2.0,2.0,71,0.00,BKN,,0.00,WeatherDisplay:10.37,2013-02-05 18:10:00,
2013-02-05 19:20:00,37.6,29.7,29.54,SE,135,1.0,2.0,73,0.00,BKN,,0.00,WeatherDisplay:10.37,2013-02-05 18:20:00,
2013-02-05 19:30:00,37.0,29.5,29.54,ESE,115,5.0,5.0,74,0.00,-RA,,0.00,WeatherDisplay:10.37,2013-02-05 18:30:00,
2013-02-05 19:40:00,37.0,29.8,29.54,ESE,115,5.0,5.0,75,0.00,-RA,,0.00,WeatherDisplay:10.37,2013-02-05 18:40:00,
2013-02-05 19:50:00,37.0,29.8,29.54,ESE,123,3.0,6.0,75,0.00,BKN,,0.00,WeatherDisplay:10.37,2013-02-05 18:50:00,
2013-02-05 20:00:00,36.7,29.5,29.54,ESE,116,1.0,3.0,75,0.00,BKN,,0.00,WeatherDisplay:10.37,2013-02-05 19:00:00,
2013-02-05 20:10:00,36.5,29.7,29.54,SE,135,2.0,2.0,76,0.00,BKN,,0.00,WeatherDisplay:10.37,2013-02-05 19:10:00,
2013-02-05 20:20:00,36.3,29.5,29.54,SE,124,0.0,0.0,76,0.00,BKN,,0.00,WeatherDisplay:10.37,2013-02-05 19:20:00,
2013-02-05 20:30:00,36.1,29.3,29.53,ESE,122,2.0,2.0,76,0.00,-RA,,0.00,WeatherDisplay:10.37,2013-02-05 19:30:00,
2013-02-05 20:40:00,36.1,29.3,29.54,ESE,112,2.0,3.0,76,0.00,-RA,,0.00,WeatherDisplay:10.37,2013-02-05 19:40:00,
2013-02-05 20:50:00,35.8,29.0,29.54,ESE,118,0.0,0.0,76,0.00,-RA,,0.00,WeatherDisplay:10.37,2013-02-05 19:50:00,
2013-02-05 21:01:00,35.8,29.0,29.54,SE,135,1.0,2.0,76,0.00,SCT,,0.00,WeatherDisplay:10.37,2013-02-05 20:01:00,
2013-02-05 21:10:00,35.8,29.0,29.54,SE,135,0.0,2.0,76,0.00,SCT,,0.00,WeatherDisplay:10.37,2013-02-05 20:10:00,
2013-02-05 21:20:00,35.8,29.0,29.55,SE,130,2.0,2.0,76,0.00,SCT,,0.00,WeatherDisplay:10.37,2013-02-05 20:20:00,
2013-02-05 21:30:00,35.8,28.6,29.55,SE,128,1.0,1.0,75,0.00,SCT,,0.00,WeatherDisplay:10.37,2013-02-05 20:30:00,
2013-02-05 21:40:00,35.8,28.6,29.54,East,84,0.0,0.0,75,0.00,SCT,,0.00,WeatherDisplay:10.37,2013-02-05 20:40:00,
2013-02-05 21:50:00,35.8,28.6,29.54,NW,315,0.0,0.0,75,0.00,SCT,,0.00,WeatherDisplay:10.37,2013-02-05 20:50:00,
2013-02-05 22:00:00,35.8,28.6,29.53,SE,124,0.0,0.0,75,0.00,BKN,,0.00,WeatherDisplay:10.37,2013-02-05 21:00:00,
2013-02-05 22:20:00,35.8,29.0,29.54,WNW,292,0.0,0.0,76,0.00,BKN,,0.00,WeatherDisplay:10.37,2013-02-05 21:20:00,
2013-02-05 22:30:00,35.6,28.8,29.55,WNW,303,0.0,0.0,76,0.00,OVC,,0.00,WeatherDisplay:10.37,2013-02-05 21:30:00,
2013-02-05 22:40:00,35.4,28.9,29.55,SE,138,0.0,1.0,77,0.00,OVC,,0.00,WeatherDisplay:10.37,2013-02-05 21:40:00,
2013-02-05 22:51:00,35.4,28.9,29.54,SE,135,1.0,2.0,77,0.00,OVC,,0.00,WeatherDisplay:10.37,2013-02-05 21:51:00,
2013-02-05 23:00:00,35.4,29.2,29.55,SE,128,2.0,3.0,78,0.00,CLR,,0.00,WeatherDisplay:10.37,2013-02-05 22:00:00,
2013-02-05 23:11:00,35.2,29.1,29.55,SSW,213,0.0,0.0,78,0.00,CLR,,0.00,WeatherDisplay:10.37,2013-02-05 22:11:00,
2013-02-05 23:20:00,35.2,29.1,29.55,SE,135,0.0,0.0,78,0.00,CLR,,0.00,WeatherDisplay:10.37,2013-02-05 22:20:00,
2013-02-05 23:30:00,35.2,29.1,29.55,SE,135,0.0,1.0,78,0.00,FEW,,0.00,WeatherDisplay:10.37,2013-02-05 22:30:00,
2013-02-05 23:40:00,35.2,29.4,29.55,SE,124,0.0,0.0,79,0.00,FEW,,0.00,WeatherDisplay:10.37,2013-02-05 22:40:00,
2013-02-05 23:50:00,35.2,29.1,29.55,ESE,114,0.0,0.0,78,0.00,FEW,,0.00,WeatherDisplay:10.37,2013-02-05 22:50:00,